Flag for U.S.A. Weather past 2 weeks in Oxnard, California, U.S.A.

Now
68 °F

Sunny.


Feels Like: 68 °F
Forecast: 58 / 69 °F
Wind: 10 mph from Northwest

Location: Oxnard Airport

Current Time: Oct 25, 2014 at 6:28:44 PM

Latest Report: Oct 25, 2014 at 5:51 PM


Visibility: 10 mi

Pressure: 29.98 "Hg

Humidity: 82%

Dew point: 62 °F

Location of OxnardLocation

Historic Weather in Oxnard — Graph

°F

Oxnard temperature yesterday

Maximum temperature yesterday: 78 °F (at 11:51 AM)
Minimum temperature yesterday: 58 °F (at 2:51 AM)
Average temperature yesterday: 67 °F

Past Weeks' High & Low Weather Summary

 TemperatureHumidityPressure
High78 °F (Oct 24, 11:51 AM)97% (Oct 13, 6:51 AM)30.06 "Hg (Oct 13, 6:51 AM)
Low55 °F (Oct 25, 5:51 AM)26% (Oct 22, 10:51 AM)29.83 "Hg (Oct 21, 5:51 PM)
Average66 °F72%29.93 "Hg
* Reported Oct 10 4:51 PM — Oct 25 4:51 PM, Oxnard, Weather by CustomWeather, © 2014

Note: Actual official high and low records may vary slightly from our data, if they occured in-between our weather recording intervals... More about our weather records

Advertising

Oxnard weather history for previous 24 hours

 ConditionsComfort  
Time TempWeatherWind HumidityBarometerVisibility
4:51 PM
Oct 25
70 °FPartly sunny.18 mph76%29.99 "Hg10 mi
3:51 PM72 °FSunny.22 mph71%30.01 "Hg10 mi
2:51 PM73 °FSunny.23 mph64%30.02 "Hg10 mi
1:51 PM73 °FSunny.N/A64%30.03 "Hg10 mi
12:51 PM73 °FSunny.14 mph62%30.05 "Hg10 mi
11:51 AM72 °FSunny.8 mph61%30.06 "Hg10 mi
10:51 AM71 °FSunny.12 mph66%30.06 "Hg10 mi
9:51 AM68 °FSunny.6 mph59%30.05 "Hg10 mi
8:51 AM63 °FSunny.8 mph48%30.03 "Hg10 mi
7:51 AM55 °FClear.5 mph72%30.02 "Hg10 mi
6:51 AM55 °FLow clouds.5 mph83%30.01 "Hg9 mi
5:51 AM55 °FClear.5 mph74%30.00 "Hg10 mi
4:51 AM56 °FClear.No wind72%29.99 "Hg10 mi
3:51 AM56 °FPassing clouds.No wind75%29.99 "Hg10 mi
2:51 AM56 °FClear.5 mph81%30.01 "Hg10 mi
1:51 AM57 °FPassing clouds.7 mph78%30.00 "Hg10 mi
12:51 AM59 °FPassing clouds.7 mph84%30.00 "Hg9 mi
11:51 PM
Oct 24
62 °FPassing clouds.No wind83%30.01 "Hg8 mi
10:51 PM63 °FFog.No wind90%29.99 "Hg6 mi
9:58 PM63 °FFog.No wind93%29.98 "Hg1 mi
8:51 PM66 °FPassing clouds.No wind87%29.96 "Hg7 mi
7:51 PM66 °FClear.No wind87%29.95 "Hg9 mi
7:00 PM65 °FFog.No wind91%29.94 "Hg3 mi
Weather by CustomWeather, © 2014

See weather overviewHow to use our weather pages